[[{"header":{"parameterUnit":"m.s-1","parameterCategory":1,"la1":30.2991,"la2":30.254,"lo1":-89.0895,"lo2":-89.0444,"dy":0.0017,"dx":0.0017,"nx":28,"ny":28,"refTime":"2025-07-10T21:00:00:Z","depth":0,"parameterNumber":2,"parameterNumberName":"U-component_of_WINDS"},"data":[0,0,0,0,0,0,0,0,0,0,0,0,0,0,0,0,0,0,0,0,0,0,0,0,0,0,0,0,0,0,0,0,0,0,0,0,0,0,0,0,0,0,0,0,0,0,0,0,0,0,0,0,0,0,0,0,0,0,2.4697,2.4699,0,2.4864,2.4866,2.4868,2.4882,2.488,2.4878,2.4876,2.5046,2.5052,2.5058,0,0,0,0,0,0,0,0,0,0,0,0,0,2.4387,2.4393,2.4697,2.4699,2.4701,2.4864,2.4866,2.4868,2.4882,2.488,2.4877,2.4875,2.5044,2.5051,2.5058,0,0,0,0,0,0,0,0,0,0,0,0,0,2.4535,2.4395,2.4697,2.4727,2.4732,2.4863,2.4866,2.4869,2.4882,2.488,2.4877,2.4874,2.5041,2.505,2.5059,2.5171,0,0,2.5088,2.5092,0,0,0,0,0,0,0,0,2.4526,2.4546,2.4721,2.4726,2.4731,2.4849,2.4819,2.497,2.4883,2.4825,2.4876,2.4873,2.4982,2.4996,2.5034,2.5179,2.5186,2.5089,2.5094,2.5098,2.5101,0,0,0,0,0,0,0,2.4516,2.4539,2.4763,2.4723,2.4729,2.4732,2.475,2.4848,2.4917,2.483,2.4831,2.4851,2.4985,2.5025,2.5038,2.5189,2.5088,2.5097,2.5102,2.5106,2.5433,2.5436,0,0,0,0,0,0,2.45,2.453,2.4758,2.4768,2.462,2.474,2.476,2.4814,2.4916,2.4929,2.4853,2.4851,2.501,2.5027,2.5044,2.518,2.5098,2.5107,2.5112,2.543,2.5434,2.5437,0,0,0,0,0,0,2.4494,2.452,2.4751,2.465,2.4679,2.4748,2.4809,2.4819,2.4859,2.4933,2.4946,2.4882,2.5009,2.5031,2.5139,2.5186,2.5111,2.512,2.5426,2.5431,2.5435,2.5455,0,0,0,0,0,0,2.4485,2.4518,2.4562,2.4651,2.4685,2.4844,2.4812,2.4824,2.4875,2.4874,2.4963,2.4975,2.5008,2.5125,2.5148,2.5198,2.5127,2.5422,2.5428,2.5434,2.545,2.5459,2.5467,0,0,0,0,0,2.4474,2.456,2.4564,2.4591,2.4741,2.4847,2.4866,2.4903,2.4879,2.4923,2.4971,2.4973,2.5178,2.5136,2.5162,2.5215,2.5419,2.5427,2.5433,2.5446,2.5458,2.5467,0,0,0,0,0,0,2.4474,2.4572,2.4577,2.4696,2.4763,2.4849,2.4906,2.4914,2.4989,2.4984,2.5026,2.5046,2.5153,2.5195,2.5147,2.5328,2.5296,2.5308,2.5297,2.5308,2.5316,2.5304,2.5135,0,0,0,0,0,2.4488,2.4567,2.4648,2.4745,2.4778,2.4836,2.4884,2.4906,2.4977,2.5006,2.5062,2.513,2.521,2.5261,2.5339,2.5456,2.5476,2.5506,2.5514,2.5521,2.5531,2.5595,2.5609,2.546,2.546,2.546,0,0,2.4518,2.4581,2.4629,2.4747,2.4801,2.4881,2.486,2.4946,2.5005,2.5019,2.5124,2.5168,2.5247,2.536,2.5413,2.5398,2.5577,2.553,2.5535,2.5541,2.5604,2.5618,2.5631,2.5465,2.5464,2.5463,0,0,2.4613,2.4669,2.4755,2.4811,2.4894,2.4932,2.4952,2.5038,2.5067,2.5174,2.5185,2.5256,2.5393,2.5449,2.5495,2.561,2.5614,2.5634,2.5679,2.5741,2.5753,2.5763,2.5804,2.5818,2.5644,2.5644,2.5644,0,2.4639,2.476,2.4798,2.4884,2.4935,2.4951,2.5038,2.509,2.5194,2.5228,2.5211,2.5383,2.5437,2.5563,2.5591,2.5628,2.5652,2.5624,2.5748,2.5759,2.577,2.5808,2.5823,2.5646,2.5646,2.5646,2.5645,0,2.4788,2.4872,2.4931,2.5032,2.509,2.5175,2.5225,2.5279,2.5296,2.5336,2.5444,2.551,2.5601,2.5632,2.565,2.5761,2.5749,2.574,2.5708,2.5785,2.5822,2.5837,2.5649,2.5648,2.5647,2.5647,0,0,2.4887,2.5008,2.5029,2.5074,2.5167,2.5232,2.5318,2.5408,2.5453,2.5524,2.5596,2.5712,2.5703,2.5756,2.578,2.5834,2.592,2.5818,2.582,2.5834,2.6045,2.6051,2.6067,2.5924,2.5927,2.5929,2.6038,0,2.4991,2.5146,2.5182,2.5314,2.5391,2.5408,2.5483,2.5547,2.5586,2.5657,2.57,2.5781,2.5764,2.5796,2.5851,2.5898,2.5963,2.5891,2.599,2.5994,2.5969,2.6087,2.6094,2.6193,2.6053,2.6055,2.6057,0,2.5134,2.5208,2.5348,2.543,2.5464,2.5531,2.5615,2.5683,2.5756,2.5781,2.5839,2.5857,2.5946,2.5911,2.6034,2.5984,2.6027,2.6056,2.6061,2.6071,2.6029,2.6099,2.6226,2.6241,2.608,2.6079,2.6077,0,2.5191,2.5326,2.5427,2.5466,2.5565,2.5611,2.5654,2.5725,2.5776,2.5849,2.5883,2.5966,2.6011,2.6074,2.6114,2.6084,2.6233,2.6201,2.6255,2.6254,2.6285,2.6282,2.642,2.6314,2.6314,2.6314,2.6314,0,2.5303,2.5387,2.5454,2.5516,2.5611,2.5652,2.5744,2.5787,2.585,2.592,2.594,2.6005,2.6054,2.6125,2.6157,2.6253,2.6274,2.6295,2.6302,2.6293,2.629,2.6321,2.6315,2.6318,2.6317,2.6316,2.6315,0,2.5383,2.5431,2.5542,2.5626,2.5649,2.5715,2.5787,2.5848,2.5887,2.5975,2.5998,2.606,2.6145,2.6191,2.6298,2.6319,2.6427,2.6431,2.6402,2.6405,2.6456,2.6451,2.6618,2.6641,2.6521,2.6522,2.6523,0,2.5451,2.5516,2.5608,2.5656,2.57,2.5778,2.583,2.5873,2.5926,2.6014,2.6064,2.615,2.6222,2.6357,2.6411,2.6492,2.6498,2.6551,2.651,2.6498,2.6497,2.6493,2.6499,2.6557,2.6559,2.6559,2.656,0,2.5566,2.5586,2.5661,2.5745,2.5807,2.5874,2.5941,2.5979,2.6033,2.6092,2.6179,2.6235,2.6344,2.6429,2.6514,2.6558,2.6568,2.6573,2.6589,2.658,2.656,2.6571,2.6421,2.6568,2.6568,2.6567,2.6567,2.6566,2.5641,2.57,2.5773,2.5856,2.591,2.5972,2.6033,2.608,2.6154,2.6246,2.6267,2.6359,2.643,2.6546,2.6592,2.6664,2.6654,2.6678,2.6684,2.6689,2.6691,2.6549,2.668,2.668,2.668,2.668,2.668,0,2.5756,2.5804,2.588,2.5973,2.6038,2.6042,2.6116,2.617,2.6251,2.6316,2.6386,2.6486,2.6569,2.6629,2.6714,2.676,2.6766,2.678,2.6777,2.6786,2.6696,2.6673,2.6773,2.6773,2.6773,2.6773,2.6773,2.6773,2.5824,2.5923,2.5952,2.6078,2.6125,2.6216,2.6258,2.6315,2.6367,2.6478,2.6547,2.6586,2.665,2.6739,2.6814,2.683,2.6859,2.6873,2.6889,2.6803,2.6793,2.6783,2.6762,2.6879,2.6879,2.6973,2.6974,2.6975]},{"header":{"parameterUnit":"m.s-1","parameterCategory":1,"la1":30.2991,"la2":30.254,"lo1":-89.0895,"lo2":-89.0444,"dy":0.0017,"dx":0.0017,"nx":28,"ny":28,"refTime":"2025-07-10T21:00:00:Z","depth":0,"parameterNumber":3,"parameterNumberName":"V-component_of_WINDS"},"data":[0,0,0,0,0,0,0,0,0,0,0,0,0,0,0,0,0,0,0,0,0,0,0,0,0,0,0,0,0,0,0,0,0,0,0,0,0,0,0,0,0,0,0,0,0,0,0,0,0,0,0,0,0,0,0,0,0,0,3.831,3.8311,0,3.8441,3.8442,3.8444,3.843,3.8428,3.8426,3.8424,3.8557,3.8562,3.8567,0,0,0,0,0,0,0,0,0,0,0,0,0,3.8046,3.8051,3.831,3.8312,3.8313,3.8441,3.8442,3.8444,3.8431,3.8428,3.8426,3.8423,3.8555,3.8561,3.8568,0,0,0,0,0,0,0,0,0,0,0,0,0,3.8167,3.8053,3.831,3.8322,3.8324,3.844,3.8442,3.8445,3.8431,3.8428,3.8425,3.8422,3.8553,3.8561,3.8569,3.868,0,0,3.8593,3.8597,0,0,0,0,0,0,0,0,3.816,3.8177,3.8318,3.8321,3.8324,3.8416,3.8398,3.8524,3.8432,3.8391,3.8424,3.8421,3.8512,3.8523,3.8555,3.8687,3.8692,3.8594,3.8599,3.8603,3.8605,0,0,0,0,0,0,0,3.8152,3.8171,3.8362,3.832,3.8324,3.832,3.8334,3.8422,3.8467,3.8394,3.8393,3.8409,3.8513,3.8547,3.8558,3.8694,3.8594,3.8601,3.8606,3.8609,3.8924,3.8927,0,0,0,0,0,0,3.8141,3.8164,3.8357,3.8366,3.8233,3.8327,3.8343,3.839,3.8466,3.8475,3.8411,3.8408,3.8534,3.8548,3.8562,3.8699,3.8603,3.861,3.8615,3.8921,3.8925,3.8929,0,0,0,0,0,0,3.8135,3.8158,3.8352,3.8265,3.8289,3.8335,3.8388,3.8394,3.8428,3.8479,3.8487,3.8438,3.8533,3.8551,3.8651,3.8703,3.8614,3.8621,3.8917,3.8922,3.8927,3.8972,0,0,0,0,0,0,3.8128,3.8156,3.82,3.8266,3.8294,3.844,3.8391,3.8399,3.8442,3.8438,3.8506,3.8514,3.8532,3.8639,3.8659,3.8712,3.8628,3.8912,3.8919,3.8925,3.8966,3.8978,3.8988,0,0,0,0,0,3.8118,3.8207,3.8202,3.8226,3.8349,3.8443,3.8459,3.8477,3.8446,3.849,3.8523,3.8512,3.8694,3.865,3.8672,3.8729,3.8909,3.8917,3.8925,3.8961,3.8975,3.8988,0,0,0,0,0,0,3.8145,3.8216,3.8211,3.8324,3.8378,3.844,3.8496,3.8492,3.8555,3.8549,3.8569,3.8584,3.8686,3.8717,3.8666,3.8841,3.8797,3.881,3.8817,3.8831,3.8842,3.8833,3.8634,0,0,0,0,0,3.8164,3.8235,3.8292,3.8386,3.8413,3.845,3.8492,3.8501,3.8557,3.858,3.862,3.8674,3.8744,3.8789,3.8855,3.897,3.8984,3.902,3.9031,3.9039,3.905,3.9113,3.913,3.8954,3.8954,3.8954,0,0,3.8205,3.8252,3.8295,3.8393,3.8436,3.8508,3.8469,3.8547,3.8601,3.8591,3.8689,3.872,3.8782,3.889,3.8939,3.8919,3.9102,3.9049,3.9056,3.9062,3.9123,3.9139,3.9154,3.8959,3.8959,3.8958,0,0,3.8315,3.8358,3.8441,3.8484,3.8549,3.8573,3.8593,3.8657,3.8677,3.8776,3.877,3.8833,3.8952,3.8996,3.9034,3.9161,3.9153,3.9182,3.924,3.9301,3.9315,3.9327,3.9372,3.9388,3.9192,3.9192,3.9192,0,3.8356,3.8466,3.8484,3.8563,3.8606,3.8601,3.8685,3.8726,3.8809,3.8838,3.8814,3.8963,3.9005,3.9123,3.9154,3.9184,3.9207,3.9175,3.9311,3.9324,3.9336,3.9379,3.9396,3.9195,3.9195,3.9195,3.9194,0,3.8514,3.8589,3.8648,3.873,3.8779,3.886,3.889,3.8938,3.8943,3.8969,3.9068,3.9118,3.9194,3.9222,3.9228,3.9342,3.9327,3.9307,3.9264,3.9355,3.9396,3.9413,3.92,3.9199,3.9198,3.9197,0,0,3.8646,3.8736,3.8757,3.8794,3.8865,3.8924,3.9004,3.9079,3.912,3.9177,3.9245,3.9345,3.9327,3.937,3.938,3.9434,3.9531,3.9407,3.9409,3.9429,3.9659,3.9674,3.9693,3.9526,3.9529,3.9531,3.9654,0,3.8764,3.8907,3.8925,3.9052,3.9122,3.9117,3.9187,3.9238,3.9264,3.9327,3.9355,3.9426,3.9397,3.9423,3.9475,3.9508,3.9577,3.9499,3.9589,3.9592,3.9574,3.9715,3.9731,3.9845,3.967,3.9673,3.9675,0,3.8921,3.8983,3.9117,3.9178,3.9208,3.9271,3.9341,3.9401,3.9458,3.9473,3.9522,3.9525,3.9607,3.956,3.9673,3.962,3.9657,3.9678,3.9683,3.9693,3.9639,3.9729,3.9881,3.9898,3.97,3.9698,3.9696,0,3.9004,3.9122,3.9217,3.9248,3.9322,3.9366,3.9399,3.9453,3.9497,3.9558,3.9586,3.9656,3.9694,3.9747,3.9769,3.9732,3.9881,3.9836,3.9896,3.9896,3.9928,3.9926,4.009,3.9951,3.9951,3.9951,3.995,0,3.9135,3.9217,3.9256,3.9314,3.9406,3.9426,3.9516,3.9546,3.9594,3.9658,3.9658,3.9718,3.9743,3.9806,3.9823,3.9915,3.9932,3.9946,3.995,3.9947,3.9945,3.9972,3.9965,3.9955,3.9954,3.9953,3.9952,0,3.9245,3.9274,3.9377,3.9438,3.9456,3.9521,3.9573,3.9629,3.9654,3.9735,3.9755,3.9795,3.9869,3.9896,3.9987,3.9998,4.0104,4.0101,4.0086,4.0087,4.0146,4.014,4.0333,4.0359,4.0203,4.0204,4.0205,0,3.9326,3.939,3.9458,3.9501,3.9535,3.9605,3.965,3.967,3.9717,3.9787,3.9835,3.9909,3.997,4.009,4.0126,4.0195,4.0194,4.0256,4.0204,4.0199,4.0195,4.0192,4.0198,4.0267,4.0268,4.027,4.0271,0,3.9469,3.948,3.9545,3.9615,3.9669,3.9725,3.9779,3.9815,3.9843,3.9896,3.9972,4.002,4.0112,4.0186,4.0257,4.0289,4.0285,4.0287,4.0304,4.0302,4.0291,4.0299,4.0113,4.0282,4.0281,4.028,4.028,4.0279,3.9568,3.9624,3.968,3.9753,3.9796,3.9846,3.9903,3.9935,3.9999,4.0077,4.0085,4.0167,4.0222,4.0317,4.0352,4.0417,4.04,4.0425,4.0432,4.0438,4.0443,4.028,4.043,4.0429,4.0429,4.0429,4.0429,0,3.9711,3.9747,3.9813,3.9889,3.9946,3.9937,3.9996,4.0044,4.0117,4.0169,4.0229,4.0316,4.0388,4.0429,4.0501,4.0544,4.0544,4.0562,4.056,4.0567,4.0454,4.0432,4.0561,4.0561,4.0561,4.0561,4.0561,4.0561,3.9792,3.9887,3.9904,4.0019,4.0054,4.0136,4.0171,4.0217,4.0258,4.0357,4.0417,4.0443,4.0491,4.0565,4.063,4.064,4.0667,4.0687,4.0696,4.0589,4.0575,4.0562,4.0542,4.0692,4.0693,4.0804,4.0805,4.0806]}]]